Sturgeon Bay, WI

6:30 AM CDT on September 25, 2016 (GMT -0500)
Door County Cherryland

Weather History for KSUE - December, 2011

Change the Weather History Date:

Sunday, December 18, 2011

  Actual Average Record
Temperature  
Mean Temperature 34 °F -  
Max Temperature 41 °F 28 °F 46 °F (1923)
Min Temperature 28 °F 16 °F -10 °F (1922)
Degree Days  
Heating Degree Days 30    
Moisture  
Dew Point 24 °F    
Average Humidity 69    
Maximum Humidity 80    
Minimum Humidity 56    
Precipitation  
Precipitation 0.00 in - - ()
Sea Level Pressure  
Sea Level Pressure 29.94 in    
Wind  
Wind Speed 10 mph (SSW)    
Max Wind Speed 21 mph    
Max Gust Speed 30 mph    
Visibility 10 miles    
Events      
Averages and records for this station are not official NWS values.
T = Trace of Precipitation, MM = Missing Value Source: NWS Daily Summary

Daily Weather History Graph

Daily Weather History Graph

Search for Another Location

Airport or City:

Trip Planner

Search our weather history database for the weather conditions in past years. The results will help you decide how hot, cold, wet, or windy it might be!

Date:

Astronomy

Dec. 18, 2011 Rise Set
Actual Time 7:22 AM CST 4:10 PM CST
Civil Twilight 6:48 AM CST 4:43 PM CST
Nautical Twilight 6:11 AM CST 5:20 PM CST
Astronomical Twilight 5:35 AM CST 5:56 PM CST
Moon 12:09 AM CST (12/18) 11:47 AM CST (12/18)
Length of Visible Light 9h 55m
Length of Day
8h 47m
Last Quarter, 42% of the Moon is Illuminated
Dec 18
Last Quarter
Dec 24
New
Jan 1
First Quarter
Jan 9
Full
Jan 16
Last Quarter

Hourly Weather History & Observations

Time (CST) Temp. Windchill Dew Point Humidity Pressure Visibility Wind Dir Wind Speed Gust Speed Precip Events Conditions
12:15 AM 30.2 °F 21.9 °F 19.4 °F 64% 30.09 in 10.0 mi NW 9.2 mph - N/A   Overcast
12:35 AM 30.2 °F 21.9 °F 17.6 °F 60% 30.10 in 10.0 mi NW 9.2 mph - N/A   Overcast
12:55 AM 28.4 °F 20.4 °F 19.4 °F 69% 30.10 in 10.0 mi WNW 8.1 mph - N/A   Overcast
1:15 AM 28.4 °F 21.2 °F 19.4 °F 69% 30.10 in 10.0 mi NW 6.9 mph - N/A   Overcast
1:35 AM 28.4 °F 21.2 °F 17.6 °F 64% 30.10 in 10.0 mi NW 6.9 mph - N/A   Overcast
1:55 AM 30.2 °F 22.6 °F 17.6 °F 60% 30.12 in 10.0 mi NW 8.1 mph - N/A   Overcast
2:15 AM 30.2 °F 23.4 °F 17.6 °F 60% 30.12 in 10.0 mi WNW 6.9 mph - N/A   Overcast
2:55 AM 30.2 °F 21.9 °F 19.4 °F 64% 30.12 in 10.0 mi WNW 9.2 mph - N/A   Overcast
3:35 AM 30.2 °F 23.4 °F 17.6 °F 60% 30.10 in 10.0 mi West 6.9 mph - N/A   Overcast
3:55 AM 30.2 °F 24.3 °F 17.6 °F 60% 30.09 in 10.0 mi WNW 5.8 mph - N/A   Overcast
4:15 AM 28.4 °F 24.6 °F 17.6 °F 64% 30.09 in 10.0 mi WNW 3.5 mph - N/A   Overcast
4:35 AM 28.4 °F 24.6 °F 19.4 °F 69% 30.10 in 10.0 mi West 3.5 mph - N/A   Overcast
4:55 AM 28.4 °F 24.6 °F 19.4 °F 69% 30.11 in 10.0 mi WSW 3.5 mph - N/A   Overcast
5:15 AM 28.4 °F 24.6 °F 19.4 °F 69% 30.10 in 10.0 mi SSW 3.5 mph - N/A   Overcast
5:35 AM 28.4 °F - 19.4 °F 69% 30.10 in 10.0 mi Calm Calm - N/A   Mostly Cloudy
5:55 AM 28.4 °F 24.6 °F 19.4 °F 69% 30.10 in 10.0 mi South 3.5 mph - N/A   Clear
6:15 AM 28.4 °F 24.6 °F 19.4 °F 69% 30.10 in 10.0 mi South 3.5 mph - N/A   Clear
6:35 AM 28.4 °F 23.3 °F 19.4 °F 69% 30.10 in 10.0 mi SSW 4.6 mph - N/A   Partly Cloudy
6:55 AM 28.4 °F 23.3 °F 21.2 °F 74% 30.09 in 10.0 mi South 4.6 mph - N/A   Partly Cloudy
7:15 AM 28.4 °F 22.2 °F 21.2 °F 74% 30.09 in 10.0 mi South 5.8 mph - N/A   Partly Cloudy
7:35 AM 28.4 °F 22.2 °F 21.2 °F 74% 30.09 in 10.0 mi SSW 5.8 mph - N/A   Clear
7:55 AM 28.4 °F 21.2 °F 21.2 °F 74% 30.10 in 10.0 mi SSW 6.9 mph - N/A   Clear
8:15 AM 28.4 °F 20.4 °F 23.0 °F 80% 30.10 in 9.0 mi SSW 8.1 mph - N/A   Clear
9:15 AM 30.2 °F 21.3 °F 23.0 °F 75% 30.09 in 9.0 mi SSW 10.4 mph - N/A   Overcast
9:35 AM 30.2 °F 21.3 °F 24.8 °F 80% 30.08 in 9.0 mi SSW 10.4 mph - N/A   Overcast
9:55 AM 30.2 °F 20.8 °F 23.0 °F 75% 30.09 in 9.0 mi SSW 11.5 mph - N/A   Overcast
10:15 AM 32.0 °F 22.1 °F 23.0 °F 69% 30.07 in 10.0 mi SSW 13.8 mph - N/A   Overcast
10:35 AM 32.0 °F 23.6 °F 23.0 °F 69% 30.05 in 10.0 mi SSW 10.4 mph - N/A   Mostly Cloudy
10:55 AM 33.8 °F 24.8 °F 24.8 °F 70% 30.04 in 10.0 mi South 12.7 mph - N/A   Partly Cloudy
11:15 AM 33.8 °F 23.9 °F 21.2 °F 60% 30.03 in 10.0 mi SSW 15.0 mph - N/A   Mostly Cloudy
11:35 AM 35.6 °F 27.1 °F 21.2 °F 56% 30.01 in 10.0 mi South 12.7 mph - N/A   Overcast
11:55 AM 35.6 °F 27.1 °F 23.0 °F 60% 29.99 in 10.0 mi South 12.7 mph - N/A   Scattered Clouds
12:15 PM 35.6 °F 27.5 °F 23.0 °F 60% 29.98 in 10.0 mi SSW 11.5 mph - N/A   Clear
1:15 PM 35.6 °F 28.6 °F 23.0 °F 60% 29.93 in 10.0 mi South 9.2 mph - N/A   Clear
1:55 PM 35.6 °F 26.2 °F 26.6 °F 70% 29.90 in 10.0 mi South 15.0 mph 19.6 mph N/A   Clear
2:15 PM 35.6 °F 26.6 °F 26.6 °F 70% 29.89 in 10.0 mi South 13.8 mph 20.7 mph N/A   Clear
2:35 PM 35.6 °F 26.6 °F 24.8 °F 65% 29.87 in 10.0 mi South 13.8 mph 24.2 mph N/A   Clear
2:55 PM 35.6 °F 26.2 °F 26.6 °F 70% 29.86 in 10.0 mi South 15.0 mph 24.2 mph N/A   Mostly Cloudy
3:15 PM 35.6 °F 25.5 °F 26.6 °F 70% 29.84 in 10.0 mi South 17.3 mph 20.7 mph N/A   Overcast
3:35 PM 37.4 °F 30.3 °F 28.4 °F 70% 29.85 in 10.0 mi South 10.4 mph - N/A   Overcast
4:35 PM 35.6 °F 27.1 °F 28.4 °F 75% 29.81 in 10.0 mi South 12.7 mph - N/A   Clear
4:55 PM 35.6 °F 26.6 °F 28.4 °F 75% 29.80 in 10.0 mi South 13.8 mph - N/A   Clear
5:35 PM 35.6 °F 27.1 °F 28.4 °F 75% 29.78 in 10.0 mi South 12.7 mph - N/A   Clear
5:55 PM 37.4 °F 28.9 °F 28.4 °F 70% 29.76 in 10.0 mi South 13.8 mph 19.6 mph N/A   Clear
6:15 PM 37.4 °F 28.9 °F 26.6 °F 65% 29.76 in 10.0 mi South 13.8 mph 19.6 mph N/A   Clear
6:35 PM 35.6 °F 27.1 °F 26.6 °F 70% 29.76 in 10.0 mi South 12.7 mph - N/A   Clear
6:55 PM 35.6 °F 27.1 °F 26.6 °F 70% 29.75 in 10.0 mi SSW 12.7 mph 17.3 mph N/A   Clear
7:15 PM 35.6 °F 27.1 °F 26.6 °F 70% 29.74 in 10.0 mi SSW 12.7 mph - N/A   Clear
7:35 PM 37.4 °F 28.5 °F 28.4 °F 70% 29.73 in 10.0 mi SSW 15.0 mph 20.7 mph N/A   Clear
7:55 PM 37.4 °F 28.2 °F 28.4 °F 70% 29.72 in 10.0 mi SSW 16.1 mph 20.7 mph N/A   Clear
8:35 PM 39.2 °F 30.2 °F 30.2 °F 70% 29.71 in 10.0 mi SSW 17.3 mph 26.5 mph N/A   Clear
8:55 PM 39.2 °F 29.8 °F 30.2 °F 70% 29.70 in 10.0 mi SW 18.4 mph 24.2 mph N/A   Clear
9:15 PM 39.2 °F 29.8 °F 30.2 °F 70% 29.70 in 10.0 mi SSW 18.4 mph 23.0 mph N/A   Clear
9:35 PM 39.2 °F 29.8 °F 30.2 °F 70% 29.69 in 10.0 mi SW 18.4 mph 24.2 mph N/A   Clear
9:55 PM 39.2 °F 29.3 °F 30.2 °F 70% 29.68 in 10.0 mi SW 20.7 mph 26.5 mph N/A   Clear
10:15 PM 39.2 °F 30.5 °F 32.0 °F 75% 29.69 in 10.0 mi SW 16.1 mph 25.3 mph N/A   Clear
10:35 PM 41.0 °F 32.2 °F 30.2 °F 65% 29.67 in 10.0 mi SW 18.4 mph 29.9 mph N/A   Clear
11:15 PM 41.0 °F 33.1 °F 32.0 °F 70% 29.66 in 10.0 mi SW 15.0 mph 26.5 mph N/A   Clear
11:35 PM 41.0 °F 32.5 °F 32.0 °F 70% 29.66 in 10.0 mi SW 17.3 mph 25.3 mph N/A   Clear